Miscellaneous Local Product
Issued by NWS Hastings, NE

Home | Current Version | Previous Version | Graphics & Text | Print | Product List | Glossary On
Versions: 1 2 3 4 5 6 7 8 9 10 11 12 13 14 15 16 17 18 19 20 21 22 23 24 25 26 27 28 29 30 31 32 33 34 35 36 37 38 39 40 41 42 43 44 45 46 47 48 49 50
000
AXUS43 KGID 220802
MISGRI

GID CWA HOURLY WEATHER ROUNDUP
NATIONAL WEATHER SERVICE HASTINGS NE
200 AM CST THU FEB 22 2018

NOTE: "FAIR" INDICATES FEW OR NO CLOUDS BELOW 12,000 FEET WITH NO
SIGNIFICANT WEATHER AND/OR OBSTRUCTIONS TO VISIBILITY.

...SOUTH CENTRAL NEBRASKA...

CITY           SKY/WX    TMP DP  RH WIND       PRES   REMARKS
GRAND ISLAND   LGT SNOW  21  16  81 E7        30.43F WCI  12
KEARNEY        FLURRIES  21  14  74 E10       30.39F WCI  10
HASTINGS       CLOUDY    20  14  77 NE12      30.39F WCI   8
ORD            LGT SNOW  19  16  88 SE8       30.39F FOG     WCI   9
YORK           LGT SNOW  21  21 100 NE7       30.44F WCI  13
AURORA         LGT SNOW  20  18  89 NE8       30.42F WCI  11
LEXINGTON      CLOUDY    22  17  79 E10       30.34F WCI  11
HOLDREGE       CLOUDY    22  13  67 E12       30.35F WCI  11
HEBRON         CLOUDY    23  21  92 NE9       30.41F WCI  13

...NEBRASKA PANHANDLE...

CITY           SKY/WX    TMP DP  RH WIND       PRES   REMARKS
CHADRON        MOCLDY    17   7  64 S8        30.18F WCI   7
ALLIANCE       FAIR       5   2  87 S10       30.18F WCI -10
SCOTTSBLUFF    MOCLDY     9   5  84 E13       30.16F WCI  -7
SIDNEY         FAIR       6   3  87 CALM      30.16F

...WESTERN AND NORTH CENTRAL NEBRASKA...

CITY           SKY/WX    TMP DP  RH WIND       PRES   REMARKS
VALENTINE      FAIR      15   6  67 S13       30.29F WCI   1
AINSWORTH      FAIR      15  12  88 S9        30.31F WCI   4
ONEILL         CLOUDY    19  14  81 S7        30.39F WCI  10
BROKEN BOW     FLURRIES  20  15  81 SE9       30.34F WCI   9
IMPERIAL       CLOUDY    21   9  59 SE12      30.26F WCI   9
NORTH PLATTE   CLOUDY    21  17  84 SE9       30.31F WCI  11
MCCOOK         CLOUDY    23   8  52 E14       30.31F WCI  11

...EASTERN NEBRASKA...

CITY           SKY/WX    TMP DP  RH WIND       PRES   REMARKS
NORFOLK        CLOUDY    20  17  88 E6        30.45F WCI  12
SO SIOUX CITY  CLOUDY    20  13  74 SE8       30.53R WCI  10
TEKAMAH        SNOW      20  18  92 SE6       30.53S VSB 1/2 WCI  12
COLUMBUS       LGT SNOW  21  18  86 E8        30.47F FOG     WCI  12
ALBION         CLOUDY    21  17  85 SE5       30.44F WCI  15
OMAHA EPPLEY   CLOUDY    23  18  81 N6        30.52F WCI  16
OFFUTT AFB     CLEAR     23  18  80 NE9       30.51S WCI  13
MILLARD        CLOUDY    24  20  86 NE3       30.50F
LINCOLN        LGT SNOW  22  19  89 NE10      30.48F FOG     WCI  11
NEBRASKA CITY  LGT SNOW  24  24 100 NE10      30.46F WCI  13
BEATRICE       MIX PCPN  25  22  91 NE10      30.43F WCI  15
FALLS CITY     MIX PCPN  25  21  85 NE9       30.45F WCI  15

...NORTHERN KANSAS...

CITY           SKY/WX    TMP DP  RH WIND       PRES   REMARKS
GOODLAND       MOCLDY    15   6  67 SE6       30.23F WCI   6
HILL CITY      CLOUDY    24   9  52 E10       30.35F WCI  14
NORTON         CLOUDY    25   5  42 E8        30.32F WCI  16
PHILLIPSBURG   CLOUDY    25  12  58 NE8       30.39S WCI  16
SMITH CENTER   CLOUDY    21  16  79 NE8       30.40S WCI  12
BELOIT         CLOUDY    21  19  93 CALM      30.41F
HAYS           CLOUDY    23  17  78 NE12      30.36F WCI  12
RUSSELL        CLOUDY    24  21  88 NE7       30.36F WCI  16
CONCORDIA      MIX PCPN  23  22  96 NE7       30.41R WCI  15
SALINA         CLOUDY    26  25  96 NE6       30.41S FOG     WCI  19
TOPEKA         LGT SNOW  28  27  96 NE8       30.42F FOG     WCI  20



USA.gov is the U.S. government's official web portal to all federal, state and local government web resources and services.